Regional Weather Roundup
Issued by NWS Cleveland, OH

Home | Current Version | Previous Version | Text Only | Print | Product List | Glossary On
Versions: 1 2 3 4 5 6 7 8 9 10 11 12 13 14 15 16 17 18 19 20 21 22 23 24 25 26 27 28 29 30 31 32 33 34 35 36 37 38 39 40 41 42 43 44 45 46 47 48 49 50
000
ASUS41 KCLE 231210
RWRCLE
OHIO REGIONAL WEATHER ROUNDUP
NATIONAL WEATHER SERVICE WILMINGTON, OH
800 AM EDT SAT AUG 23 2014

NOTE: "FAIR" INDICATES FEW OR NO CLOUDS BELOW 12,000 FEET WITH NO
SIGNIFICANT WEATHER AND/OR OBSTRUCTIONS TO VISIBILITY.

OHZ001>008-015>018-024>027-034-035-043-044-231300-
   NORTHWEST OHIO

CITY           SKY/WX    TMP DP  RH WIND       PRES   REMARKS
DEFIANCE       FOG       70  68  93 NE6       30.02R VSB 1/4
FINDLAY        FOG       70  69  97 E6        30.01S VSB 1
TOLEDO EXPRESS PTSUNNY   67  64  90 E3        30.02S
TOLEDO METCALF SUNNY     71  66  84 NE6       30.03R
LIMA           MOSUNNY   72  68  87 E6        30.01S FOG
$$

OHZ009>014-019>023-028>033-038-089-231300-
   NORTHEAST OHIO

CITY           SKY/WX    TMP DP  RH WIND       PRES   REMARKS
CLE-HOPKINS    PTSUNNY   71  67  87 E8        30.05R FOG
CLE-LAKEFRONT  CLOUDY    71  68  90 E5        30.02S
CUY CO. ARPT   PTSUNNY   70  68  94 NE5       30.05R FOG
LORAIN-ELYRIA  CLOUDY    74  69  85 NE6       30.04R HAZE
ASHTABULA      CLOUDY    68  66  93 CALM      30.05R FOG
AKRON-CANTON   MOSUNNY   69  65  86 N5        30.04R FOG
WOOSTER        MOSUNNY   67  65  93 CALM      30.04F FOG
MANSFIELD      FOG       67  67 100 NE5       30.04R VSB<1/4
YOUNGSTOWN     FOG       65  63  93 N6        30.04R VSB 1/8
$$

OHZ042-051>053-060>062-070>072-077>081-231300-
  SOUTHWEST OHIO

CITY           SKY/WX    TMP DP  RH WIND       PRES   REMARKS
CINC-COVINGTON MOSUNNY   73  71  93 CALM      30.01S
CINC-LUNKEN    FOG       71  71 100 CALM      30.01R VSB<1/4
HAMILTON       PTSUNNY   71  71 100 CALM      30.02R FOG
DAYTON         FOG       74  72  93 CALM      30.03R VSB 1/4
WRIGHT-PAT AFB FOG       72  72 100 NW2       30.02R VSB 1/4
DAYTON GENERAL FOG       71  71 100 CALM      30.02R VSB 1
WILMINGTON     FOG       69  68  96 CALM      30.02R VSB<1/4
$$

OHZ036-037-039>041-045>050-054>059-063>069-073>076-082>088-231300-
  CENTRAL AND SOUTHEAST OHIO

CITY           SKY/WX    TMP DP  RH WIND       PRES   REMARKS
COLUMBUS       MOSUNNY   72  68  87 N5        30.01R FOG
OSU AIRPORT    FOG       70  69  97 N3        30.01R VSB 1/2
BOLTON FIELD   CLOUDY    70  70 100 NW3       30.02S
RICKENBACK AFB FOG       71  67  87 CALM      30.01R VSB<1/4
NEWARK         FOG       70  68  93 CALM      30.01R VSB 1/4
MARION         FOG       67  66  97 E5        30.03R VSB<1/4
LANCASTER      FOG       69  67  93 CALM      30.01R VSB 1/4
ZANESVILLE     FOG       69  67  93 NE5       30.02R VSB 1/2
NEW PHILLY     CLOUDY    70  68  93 CALM      30.03R FOG
$$



USA.gov is the U.S. government's official web portal to all federal, state and local government web resources and services.